[[{"header":{"parameterUnit":"m.s-1","parameterCategory":1,"la1":30.2992,"la2":30.254,"lo1":-89.0895,"lo2":-89.0443,"dy":0.0025,"dx":0.0025,"nx":19,"ny":19,"refTime":"2026-05-08T21:00:00:Z","depth":0,"parameterNumber":2,"parameterNumberName":"U-component_of_WINDS"},"data":[0,0,0,-5.1408,-5.1412,-5.1592,-5.1593,-5.1833,-5.1835,0,0,0,0,0,0,0,0,0,0,0,-5.1361,-5.1363,-5.1408,-5.1413,-5.1592,-5.1593,-5.1833,-5.1835,0,0,0,0,0,0,0,0,0,0,0,-5.136,-5.1363,-5.1365,-5.1413,-5.1592,-5.1593,-5.1832,-5.1693,0,0,0,0,0,0,0,0,0,0,-5.1516,-5.1479,-5.1362,-5.1365,-5.1414,-5.1592,-5.1593,-5.1686,-5.1701,-5.1756,0,-5.1806,0,-5.1825,-5.1852,-5.1853,0,0,0,-5.1408,-5.1466,-5.1509,-5.1365,-5.1416,-5.1591,-5.151,-5.1694,-5.1712,-5.1777,-5.181,-5.1818,-5.1829,-5.1854,-5.1855,-5.2185,-5.2186,0,0,-5.1398,-5.1397,-5.1497,-5.1521,-5.1494,-5.1504,-5.1515,-5.1705,-5.1741,-5.181,-5.1824,-5.1833,-5.1855,-5.1857,-5.2183,-5.2185,0,0,0,-5.1373,-5.139,-5.1428,-5.1511,-5.1543,-5.1509,-5.1522,-5.1732,-5.1745,-5.1826,-5.1835,-5.1857,-5.186,-5.2181,-5.2184,-5.2269,0,0,0,-5.1366,-5.1375,-5.1424,-5.1425,-5.154,-5.164,-5.1546,-5.1732,-5.1753,-5.1834,-5.1857,-5.1862,-5.2179,-5.2183,-5.2262,-5.2308,0,0,0,-5.1347,-5.1373,-5.1401,-5.1425,-5.1502,-5.1637,-5.166,-5.1736,-5.1759,-5.1853,-5.1863,-5.2178,-5.2182,-5.2256,-5.2299,-5.2394,0,0,0,-5.1327,-5.1475,-5.1403,-5.1572,-5.1501,-5.1688,-5.1659,-5.1799,-5.189,-5.1858,-5.218,-5.2184,-5.2254,-5.2293,-5.2387,-5.2472,-5.2508,0,0,-5.1513,-5.1497,-5.1597,-5.1537,-5.1737,-5.1661,-5.1874,-5.1958,-5.1969,-5.2112,-5.212,-5.2264,-5.2298,-5.2392,-5.2711,-5.2739,0,0,0,-5.1655,-5.1727,-5.178,-5.1866,-5.1935,-5.1996,-5.2048,-5.208,-5.2202,-5.2042,-5.2325,-5.2345,-5.2401,-5.2441,-5.2465,-5.2512,-5.2203,-5.2202,-5.2202,-5.1917,-5.1921,-5.2086,-5.2113,-5.2197,-5.2249,-5.2318,-5.2369,-5.235,-5.2417,-5.2459,-5.2651,-5.2698,-5.2716,-5.2765,-5.2505,-5.2506,-5.2506,-5.2506,-5.2188,-5.2289,-5.226,-5.2409,-5.2414,-5.2539,-5.2596,-5.2578,-5.2695,-5.262,-5.2669,-5.2584,-5.2747,-5.279,-5.2513,-5.2512,-5.2511,-5.251,-5.251,-5.2358,-5.2407,-5.2443,-5.2568,-5.2664,-5.2687,-5.28,-5.2801,-5.2802,-5.2851,-5.2894,-5.2893,-5.289,-5.2872,-5.2873,-5.2873,-5.2874,-5.2874,-5.2875,-5.252,-5.2557,-5.2653,-5.2737,-5.2793,-5.2866,-5.292,-5.2975,-5.3035,-5.3026,-5.3027,-5.3,-5.2763,-5.2702,-5.2885,-5.2883,-5.2882,-5.2881,-5.288,-5.279,-5.2729,-5.2876,-5.2932,-5.3031,-5.3126,-5.3126,-5.3237,-5.3282,-5.3338,-5.3302,-5.3127,-5.311,-5.3091,-5.3041,-5.3301,-5.3301,-5.3301,-5.3301,-5.2932,-5.2925,-5.3075,-5.3163,-5.325,-5.3264,-5.3431,-5.3475,-5.3511,-5.3539,-5.3502,-5.3436,-5.3417,-5.3412,-5.3386,-5.3338,-5.3669,-5.3669,-5.3669,-5.3098,-5.3099,-5.324,-5.3274,-5.3351,-5.3418,-5.3574,-5.3677,-5.3705,-5.3684,-5.3561,-5.3545,-5.3439,-5.3404,-5.3378,-5.3338,-5.3251,0,0]},{"header":{"parameterUnit":"m.s-1","parameterCategory":1,"la1":30.2992,"la2":30.254,"lo1":-89.0895,"lo2":-89.0443,"dy":0.0025,"dx":0.0025,"nx":19,"ny":19,"refTime":"2026-05-08T21:00:00:Z","depth":0,"parameterNumber":3,"parameterNumberName":"V-component_of_WINDS"},"data":[0,0,0,5.3574,5.3577,5.3716,5.3716,5.3899,5.3901,0,0,0,0,0,0,0,0,0,0,0,5.3539,5.354,5.3574,5.3577,5.3715,5.3716,5.3899,5.3901,0,0,0,0,0,0,0,0,0,0,0,5.3538,5.354,5.3542,5.3578,5.3715,5.3716,5.3898,5.3791,0,0,0,0,0,0,0,0,0,0,5.3656,5.363,5.354,5.3542,5.3579,5.3715,5.3716,5.3786,5.3798,5.384,0,5.3881,0,5.3894,5.3914,5.3914,0,0,0,5.3572,5.362,5.3652,5.3542,5.358,5.3715,5.3652,5.3793,5.3806,5.3856,5.3883,5.389,5.3897,5.3915,5.3916,5.4181,5.4182,0,0,5.3565,5.3566,5.3643,5.3661,5.3643,5.3647,5.3656,5.3801,5.383,5.3884,5.3894,5.39,5.3916,5.3918,5.418,5.4181,0,0,0,5.3546,5.3561,5.359,5.3654,5.3679,5.3652,5.3662,5.3823,5.3833,5.3896,5.3902,5.3917,5.392,5.4178,5.418,5.4256,0,0,0,5.3541,5.355,5.3587,5.3589,5.3676,5.3753,5.3681,5.3823,5.3839,5.3901,5.3917,5.3922,5.4176,5.4179,5.425,5.429,0,0,0,5.3528,5.3549,5.3571,5.3589,5.3649,5.3751,5.3768,5.3826,5.3843,5.3915,5.3922,5.4175,5.4179,5.4245,5.4282,5.4361,0,0,0,5.3513,5.3635,5.3572,5.3711,5.3648,5.3797,5.3767,5.3878,5.3948,5.3918,5.4177,5.418,5.4244,5.4277,5.4356,5.4427,5.4458,0,0,5.3667,5.3653,5.3734,5.3683,5.3845,5.3776,5.3948,5.401,5.4013,5.4124,5.4131,5.4252,5.4282,5.436,5.4628,5.4652,0,0,0,5.3784,5.3842,5.3885,5.3953,5.4005,5.4053,5.4088,5.4111,5.4206,5.4072,5.4302,5.432,5.4365,5.4399,5.442,5.4459,5.4196,5.4196,5.4195,5.4002,5.4004,5.4138,5.4157,5.4223,5.426,5.4314,5.4351,5.433,5.4385,5.4417,5.458,5.462,5.4636,5.4676,5.4456,5.4456,5.4457,5.4457,5.4228,5.431,5.4284,5.4404,5.4404,5.4505,5.4545,5.4528,5.4621,5.4555,5.4596,5.4523,5.4662,5.4698,5.4462,5.4461,5.4461,5.446,5.446,5.437,5.441,5.4438,5.4539,5.4616,5.463,5.4721,5.4717,5.4714,5.4754,5.4788,5.4787,5.4784,5.4771,5.4772,5.4772,5.4773,5.4773,5.4773,5.4507,5.4536,5.4615,5.4682,5.4727,5.4784,5.4824,5.4867,5.4913,5.4903,5.4903,5.4877,5.4676,5.4625,5.4782,5.4781,5.4779,5.4779,5.4778,5.4733,5.4682,5.4804,5.4849,5.4928,5.5005,5.5,5.5088,5.5123,5.5168,5.5134,5.4987,5.4971,5.4955,5.4912,5.5134,5.5134,5.5134,5.5134,5.4853,5.4846,5.497,5.5042,5.5112,5.5121,5.5257,5.529,5.5314,5.5336,5.5303,5.5248,5.5231,5.5225,5.5203,5.5163,5.5444,5.5444,5.5445,5.4992,5.4992,5.511,5.5136,5.5198,5.5251,5.5379,5.5461,5.5478,5.5457,5.5352,5.5339,5.5249,5.522,5.5194,5.516,5.5087,0,0]}]]